#timestamp,LO_Frequency,Hit 
1498219215.2,286046990.6,N
1498219235.1,286046992.8,N
1498219236.0,286046992.8,N
1498219255.8,286046990.4,N
1498219275.6,286046991.2,N
1498219295.5,286046991.5,N
1498219315.3,286046990.7,N
1498219335.1,286046991.1,N
1498219355.9,286046991.1,N
1498219375.7,286046991.6,N
1498219395.5,286046988.5,Y
1498219415.4,286046997.3,N
1498219435.2,286046997.5,N
1498219455.0,286046997.9,N
1498219455.9,286046997.9,N
1498219475.8,286046995.0,N
1498219495.6,286046995.4,N
1498219515.4,286046995.3,N
1498219535.2,286046995.4,N
1498219555.1,286046995.9,N
1498219556.0,286046995.9,N
1498219575.8,286046996.3,N
1498219595.6,286046993.4,N
1498219615.5,286046994.5,N
1498219635.3,286046993.3,N
1498219655.1,286046993.6,N
1498219675.9,286046994.4,N
1498219695.7,286046991.8,N
1498219715.5,286046994.0,N
1498219735.4,286046991.7,N
1498219755.2,286046992.2,N
1498219775.0,286046992.4,N
1498219775.9,286046992.4,N
1498219795.8,286046992.0,N
1498219815.6,286046990.5,Y
1498219835.4,286046996.6,N
1498219855.3,286046999.3,N
1498219875.1,286046996.9,N
1498219876.0,286046996.9,N
1498219895.8,286046997.6,N
1498219915.7,286046995.7,N
1498219935.5,286046997.9,N
1498219955.3,286046995.3,N
1498219975.1,286046995.0,N
1498219995.9,286046997.9,N
1498220015.7,286046997.3,N
1498220035.5,286046997.0,N
1498220055.4,286046999.2,N
1498220075.2,286046999.4,N
1498220095.0,286046998.7,N
1498220095.9,286046998.7,N
1498220115.8,286046998.9,N
1498220135.6,286046999.5,N
1498220155.4,286046997.0,N
1498220175.3,286046997.1,N
1498220195.1,286046996.8,N
1498220196.0,286046996.8,N
1498220215.8,286046996.7,N
1498220235.7,286046996.8,N
1498220255.5,286046996.7,N
1498220275.3,286046997.4,N
1498220295.1,286046994.9,N
1498220315.9,286046997.2,N
1498220335.7,286046996.5,N
1498220355.5,286046996.8,N
1498220375.4,286046996.7,N
1498220395.2,286046997.0,N
1498220415.0,286046996.9,N
1498220415.9,286046996.9,N
1498220435.8,286046996.6,N
1498220455.6,286046997.4,N
1498220475.4,286046996.6,N
1498220495.3,286046997.1,N
1498220515.1,286046997.7,N
1498220516.0,286046997.7,N
1498220535.8,286046996.7,N
1498220555.7,286046997.1,N
1498220575.5,286046997.9,N
1498220595.3,286046997.5,N
1498220615.1,286046995.5,N
1498220635.9,286046995.4,N
1498220655.7,286046998.0,N
1498220675.5,286046995.1,N
1498220695.4,286046995.4,N
1498220715.2,286046995.2,N
1498220735.0,286046995.6,N
1498220735.9,286046995.6,N
1498220755.8,286046995.2,N
1498220775.6,286046997.9,N
1498220795.4,286046998.0,N
1498220815.3,286046995.2,N
1498220835.1,286046995.6,N
1498220836.0,286046995.6,N
1498220855.8,286046995.1,N
1498220875.6,286046995.6,N
1498220895.5,286046995.7,N
1498220915.3,286046994.0,N
1498220935.1,286046993.3,N
1498220955.9,286046996.4,N
1498220975.7,286046993.9,N
1498220995.5,286046993.8,N
1498221015.4,286046994.5,N
1498221035.2,286046994.5,N
1498221055.0,286046993.9,N
1498221055.9,286046993.9,N
1498221075.8,286046993.7,N
1498221095.6,286046993.6,N
1498221115.4,286046993.6,N
1498221135.2,286046993.8,N
1498221155.1,286046994.0,N
1498221156.0,286046994.0,N
1498221175.8,286046994.8,N
1498221195.6,286046992.6,N
1498221215.5,286046994.7,N
1498221235.3,286046992.0,N
1498221255.1,286046992.6,N
1498221275.9,286046994.8,N
1498221295.7,286046994.8,N
1498221315.5,286046992.6,N
1498221335.4,286046992.1,N
1498221355.2,286046992.3,N
1498221375.0,286046992.5,N
1498221375.9,286046992.5,N
1498221395.8,286046992.1,N
1498221415.6,286046992.5,N
1498221435.4,286046993.1,N
1498221455.3,286046991.3,Y
1498221475.1,286046998.0,N
1498221476.0,286046998.0,N
1498221495.8,286046997.6,N
1498221515.6,286046997.5,N
1498221535.5,286046998.0,N
1498221555.3,286046997.3,N
1498221575.1,286046997.5,N
1498221595.9,286046995.2,N
1498221615.7,286046995.6,N
1498221635.5,286046995.9,N
1498221655.4,286046995.7,N
1498221675.2,286046995.9,N
1498221695.0,286046995.8,N
1498221695.9,286046995.8,N
1498221715.8,286046996.1,N
1498221735.6,286046994.5,N
1498221755.4,286046991.9,Y
1498221775.3,286046997.8,N
1498221795.1,286046995.2,N
1498221796.0,286046995.2,N
1498221815.8,286046995.1,N
1498221835.7,286046997.4,N
1498221855.5,286046998.0,N
1498221875.3,286046995.1,N
1498221895.1,286046997.1,N
1498221915.9,286046997.3,N
1498221935.7,286046997.9,N
1498221955.5,286046997.6,N
1498221975.4,286046996.2,N
1498221995.2,286046995.8,N
1498222015.0,286046995.8,N
1498222015.9,286046995.8,N
1498222035.8,286046995.0,N
1498222055.6,286046998.0,N
1498222075.4,286046997.4,N
1498222095.3,286046997.2,N
1498222115.1,286046997.7,N
1498222116.0,286046997.7,N
1498222135.8,286046997.2,N
1498222155.7,286046996.9,N
1498222175.5,286046997.1,N
1498222195.3,286046996.6,N
1498222215.2,286046996.6,N
1498222235.9,286046997.3,N
1498222255.7,286046997.4,N
1498222275.5,286046997.7,N
1498222295.4,286046997.2,N
1498222315.2,286046997.6,N
1498222335.0,286046997.9,N
1498222335.9,286046997.9,N
1498222355.8,286046998.0,N
1498222375.6,286046995.1,N
1498222395.4,286046995.1,N
1498222415.3,286046995.7,N
1498222435.1,286046996.3,N
1498222436.0,286046996.3,N
1498222455.8,286046996.3,N
1498222475.7,286046995.9,N
1498222495.5,286046993.6,N
1498222515.3,286046993.3,N
1498222535.1,286046993.7,N
1498222555.9,286046993.4,N
1498222575.7,286046993.9,N
1498222595.5,286046992.5,Y
1498222615.4,286046999.2,N
1498222635.2,286046998.7,N
1498222655.0,286046998.7,N
1498222655.9,286046998.7,N
1498222675.8,286046996.6,N
1498222695.6,286046999.3,N
1498222715.4,286046999.1,N
1498222735.3,286046996.5,N
1498222755.1,286046996.5,N
1498222775.8,286046997.8,N
1498222795.7,286046997.4,N
